| time (UTC) | temp F | wind direction | speed knots | gust knots | rain 1hr in | rain 24hr in | rain mn in | humidity % | barometer mb |
| 20260502231040 | 58 | 0.0 | 0.0 | 0.00 | 0.00 | 0.00 | 34 | 1020.0 | |
| 20260502224815 | 59 | 0.0 | 0.0 | 0.00 | 0.00 | 0.00 | 32 | 1020.2 | |
| 20260502222550 | 59 | 0.0 | 0.0 | 0.00 | 0.00 | 0.00 | 33 | 1020.2 | |
| 20260502221550 | 59 | 0.0 | 0.0 | 0.00 | 0.00 | 0.00 | 34 | 1020.2 | |
| 20260502220550 | 59 | 0.0 | 0.0 | 0.00 | 0.00 | 0.00 | 36 | 1020.2 | |
| 20260502215550 | 59 | 0.0 | 0.0 | 0.00 | 0.00 | 0.00 | 36 | 1020.2 | |
| 20260502214550 | 60 | 0.0 | 0.0 | 0.00 | 0.00 | 0.00 | 34 | 1020.3 | |
| 20260502213550 | 60 | 0.0 | 0.0 | 0.00 | 0.00 | 0.00 | 32 | 1020.2 | |
| 20260502212550 | 60 | 0.0 | 0.0 | 0.00 | 0.00 | 0.00 | 31 | 1020.3 | |
| 20260502211550 | 60 | 0.0 | 0.0 | 0.00 | 0.00 | 0.00 | 31 | 1020.3 | |
| 20260502210550 | 61 | 0.0 | 0.0 | 0.00 | 0.00 | 0.00 | 31 | 1020.4 | |
| 20260502205550 | 60 | 0.0 | 0.0 | 0.00 | 0.00 | 0.00 | 31 | 1020.4 | |
| 20260502204550 | 61 | 0.0 | 0.0 | 0.00 | 0.00 | 0.00 | 31 | 1020.4 | |
| 20260502203550 | 61 | 0.0 | 0.0 | 0.00 | 0.00 | 0.00 | 31 | 1020.5 | |
| 20260502202550 | 60 | 0.0 | 0.0 | 0.00 | 0.00 | 0.00 | 32 | 1020.6 | |
| 20260502201550 | 60 | 0.0 | 0.0 | 0.00 | 0.00 | 0.00 | 32 | 1020.6 | |
| 20260502200550 | 60 | 0.0 | 0.0 | 0.00 | 0.00 | 0.00 | 32 | 1020.7 | |
| 20260502194326 | 61 | 0.0 | 0.0 | 0.00 | 0.00 | 0.00 | 31 | 1020.8 | |
| 20260502193326 | 61 | 0.0 | 0.0 | 0.00 | 0.00 | 0.00 | 31 | 1020.7 | |
| 20260502192326 | 61 | 0.0 | 0.0 | 0.00 | 0.00 | 0.00 | 32 | 1020.7 | |
| 20260502191326 | 62 | 0.0 | 0.0 | 0.00 | 0.00 | 0.00 | 32 | 1020.7 | |
| 20260502190327 | 62 | 0.0 | 0.0 | 0.00 | 0.00 | 0.00 | 31 | 1020.6 | |
| 20260502185326 | 63 | 0.0 | 0.0 | 0.00 | 0.00 | 0.00 | 31 | 1020.5 | |
| 20260502184326 | 63 | 0.0 | 0.0 | 0.00 | 0.00 | 0.00 | 28 | 1020.5 | |
| 20260502183326 | 65 | 0.0 | 0.0 | 0.00 | 0.00 | 0.00 | 23 | 1020.4 | |
| 20260502181101 | 65 | 0.0 | 0.0 | 0.00 | 0.00 | 0.00 | 22 | 1020.1 | |
| 20260502164102 | 69 | 0.0 | 0.0 | 0.00 | 0.00 | 0.00 | 20 | 1020.5 | |
| 20260502163102 | 69 | 0.0 | 0.0 | 0.00 | 0.00 | 0.00 | 19 | 1020.5 | |
| 20260502162102 | 69 | 0.0 | 0.0 | 0.00 | 0.00 | 0.00 | 20 | 1020.7 | |
| 20260502161101 | 69 | 0.0 | 0.0 | 0.00 | 0.00 | 0.00 | 20 | 1020.8 | |
| 20260502151612 | 69 | 0.0 | 0.0 | 0.00 | 0.00 | 0.00 | 18 | 1021.4 | |
| 20260502150613 | 68 | 0.0 | 0.0 | 0.00 | 0.00 | 0.00 | 19 | 1021.5 | |
| 20260502140125 | 68 | 0.0 | 0.0 | 0.00 | 0.00 | 0.00 | 20 | 1022.1 | |
| 20260502122901 | 69 | 0.0 | 0.0 | 0.00 | 0.00 | 0.00 | 20 | 1023.1 | |
| 20260502121901 | 66 | 0.0 | 0.0 | 0.00 | 0.00 | 0.00 | 20 | 1023.3 | |
| 20260502120901 | 65 | 0.0 | 0.0 | 0.00 | 0.00 | 0.00 | 22 | 1023.3 | |
| 20260502115901 | 68 | 0.0 | 0.0 | 0.00 | 0.00 | 0.00 | 23 | 1023.4 | |
| 20260502114901 | 65 | 0.0 | 0.0 | 0.00 | 0.00 | 0.00 | 22 | 1023.5 | |
| 20260502113900 | 68 | 0.0 | 0.0 | 0.00 | 0.00 | 0.00 | 24 | 1023.7 | |
| 20260502112900 | 66 | 0.0 | 0.0 | 0.00 | 0.00 | 0.00 | 28 | 1023.8 | |
| 20260502111901 | 65 | 0.0 | 0.0 | 0.00 | 0.00 | 0.00 | 23 | 1024.0 | |
| 20260502110901 | 66 | 0.0 | 0.0 | 0.00 | 0.00 | 0.00 | 25 | 1024.1 | |
| 20260502105901 | 65 | 0.0 | 0.0 | 0.00 | 0.00 | 0.00 | 27 | 1024.3 | |
| 20260502104901 | 65 | 0.0 | 0.0 | 0.00 | 0.00 | 0.00 | 27 | 1024.3 | |
| 20260502103900 | 64 | 0.0 | 0.0 | 0.00 | 0.00 | 0.00 | 27 | 1024.4 | |
| 20260502102900 | 64 | 0.0 | 0.0 | 0.00 | 0.00 | 0.00 | 29 | 1024.5 | |
| 20260502101901 | 65 | 0.0 | 0.0 | 0.00 | 0.00 | 0.00 | 30 | 1024.7 | |
| 20260502100901 | 64 | 0.0 | 0.0 | 0.00 | 0.00 | 0.00 | 29 | 1024.7 | |
| 20260502071149 | 60 | 0.0 | 0.0 | 0.00 | 0.00 | 0.00 | 39 | 1026.0 | |
| 20260502070149 | 60 | 0.0 | 0.0 | 0.00 | 0.00 | 0.00 | 40 | 1025.9 | |
| 20260502065149 | 60 | 0.0 | 0.0 | 0.00 | 0.00 | 0.00 | 40 | 1026.0 | |
| 20260502064150 | 60 | 0.0 | 0.0 | 0.00 | 0.00 | 0.00 | 40 | 1026.1 | |
| 20260502063149 | 59 | 0.0 | 0.0 | 0.00 | 0.00 | 0.00 | 40 | 1026.0 | |
| 20260502062149 | 59 | 0.0 | 0.0 | 0.00 | 0.00 | 0.00 | 42 | 1026.0 | |
| 20260502061149 | 59 | 0.0 | 0.0 | 0.00 | 0.00 | 0.00 | 41 | 1026.1 | |
| 20260502060149 | 58 | 0.0 | 0.0 | 0.00 | 0.00 | 0.00 | 41 | 1026.1 | |
| 20260502055149 | 58 | 0.0 | 0.0 | 0.00 | 0.00 | 0.00 | 42 | 1026.0 | |
| 20260502052926 | 57 | 0.0 | 0.0 | 0.00 | 0.00 | 0.00 | 42 | 1026.0 | |
| 20260502051925 | 57 | 0.0 | 0.0 | 0.00 | 0.00 | 0.00 | 43 | 1026.1 | |
| 20260502050925 | 56 | 0.0 | 0.0 | 0.00 | 0.00 | 0.00 | 44 | 1026.0 | |
| 20260502045925 | 55 | 0.0 | 0.0 | 0.00 | 0.00 | 0.00 | 44 | 1026.0 | |
| 20260502044925 | 55 | 0.0 | 0.0 | 0.00 | 0.00 | 0.00 | 44 | 1025.9 | |
| 20260502043925 | 55 | 0.0 | 0.0 | 0.00 | 0.00 | 0.00 | 44 | 1026.0 | |
| 20260502041701 | 54 | 0.0 | 0.0 | 0.00 | 0.00 | 0.00 | 45 | 1025.8 | |
| 20260502035437 | 54 | 0.0 | 0.0 | 0.00 | 0.00 | 0.00 | 45 | 1025.8 | |
| 20260502034438 | 54 | 0.0 | 0.0 | 0.00 | 0.00 | 0.00 | 45 | 1025.8 | |
| 20260502033438 | 54 | 0.0 | 0.0 | 0.00 | 0.00 | 0.00 | 45 | 1025.8 | |
| 20260502032438 | 54 | 0.0 | 0.0 | 0.00 | 0.00 | 0.00 | 45 | 1025.7 | |
| 20260502031438 | 54 | 0.0 | 0.0 | 0.00 | 0.00 | 0.00 | 45 | 1025.7 | |
| 20260502030437 | 54 | 0.0 | 0.0 | 0.00 | 0.00 | 0.00 | 44 | 1025.8 | |
| 20260502025438 | 55 | 0.0 | 0.0 | 0.00 | 0.00 | 0.00 | 44 | 1025.8 | |
| 20260502024437 | 55 | 0.0 | 0.0 | 0.00 | 0.00 | 0.00 | 44 | 1025.8 | |
| 20260502023438 | 55 | 0.0 | 0.0 | 0.00 | 0.00 | 0.00 | 44 | 1025.9 | |
| 20260502021214 | 55 | 0.0 | 0.0 | 0.00 | 0.00 | 0.00 | 45 | 1025.9 | |
| 20260502020213 | 55 | 0.0 | 0.0 | 0.00 | 0.00 | 0.00 | 45 | 1026.0 | |
| 20260502015214 | 54 | 0.0 | 0.0 | 0.00 | 0.00 | 0.00 | 46 | 1026.0 | |
| 20260502014214 | 53 | 0.0 | 0.0 | 0.00 | 0.00 | 0.00 | 47 | 1026.1 | |
| 20260502013215 | 53 | 0.0 | 0.0 | 0.00 | 0.00 | 0.00 | 48 | 1026.1 | |
| 20260502012214 | 53 | 0.0 | 0.0 | 0.00 | 0.00 | 0.00 | 47 | 1026.1 | |
| 20260502011214 | 54 | 0.0 | 0.0 | 0.00 | 0.00 | 0.00 | 46 | 1026.1 | |
| 20260502010214 | 54 | 0.0 | 0.0 | 0.00 | 0.00 | 0.00 | 46 | 1026.1 | |
| 20260502005213 | 54 | 0.0 | 0.0 | 0.00 | 0.00 | 0.00 | 45 | 1026.1 | |
| 20260502004214 | 55 | 0.0 | 0.0 | 0.00 | 0.00 | 0.00 | 45 | 1026.2 | |
| 20260502003213 | 55 | 0.0 | 0.0 | 0.00 | 0.00 | 0.00 | 45 | 1026.2 | |
| 20260502002213 | 54 | 0.0 | 0.0 | 0.00 | 0.00 | 0.00 | 46 | 1026.2 | |
| 20260501235950 | 54 | 0.0 | 0.0 | 0.00 | 0.00 | 0.00 | 46 | 1026.3 | |
| 20260501234949 | 53 | 0.0 | 0.0 | 0.00 | 0.00 | 0.00 | 47 | 1026.4 | |
| 20260501233949 | 53 | 0.0 | 0.0 | 0.00 | 0.00 | 0.00 | 48 | 1026.4 | |
| 20260501232949 | 53 | 0.0 | 0.0 | 0.00 | 0.00 | 0.00 | 47 | 1026.5 |